This is the latest recevied weather packets stored in our database for station/object FW7644. If no packets are shown the sender has not sent any weather packets the latest 10 day(s).
| Time | Temp. | Humidity | Pressure | Rain* | Wind** | Luminosity | Snow |
|---|---|---|---|---|---|---|---|
| 1778216190 | 16.11° C | 99% | 1013.4 hPa | 0 mm | - | - | - |
| 1778215888 | 16.11° C | 99% | 1013.3 hPa | 0 mm | - | - | - |
| 1778215587 | 15.56° C | 99% | 1013.2 hPa | 0 mm | - | - | - |
| 1778215285 | 15.56° C | 99% | 1013.2 hPa | 0 mm | - | - | - |
| 1778214983 | 15.56° C | 99% | 1013.2 hPa | 0 mm | - | - | - |
| 1778214682 | 15.56° C | 99% | 1013.2 hPa | 0 mm | - | - | - |
| 1778214380 | 15.56° C | 99% | 1013.2 hPa | 0 mm | - | - | - |
| 1778214077 | 16.11° C | 99% | 1013.3 hPa | 0 mm | - | - | - |
| 1778213775 | 16.11° C | 99% | 1013.3 hPa | 0 mm | - | - | - |
| 1778213474 | 16.11° C | 99% | 1013.3 hPa | 0 mm | - | - | - |
| 1778213173 | 16.11° C | 99% | 1013.4 hPa | 0 mm | - | - | - |
| 1778212871 | 16.11° C | 99% | 1013.4 hPa | 0 mm | - | - | - |
| 1778212568 | 16.11° C | 99% | 1013.5 hPa | 0 mm | - | - | - |
| 1778212267 | 16.67° C | 99% | 1013.3 hPa | 0 mm | - | - | - |
| 1778211966 | 16.67° C | 99% | 1013.4 hPa | 0 mm | - | - | - |
| 1778211663 | 16.67° C | 99% | 1013.3 hPa | 0 mm | - | - | - |
| 1778211362 | 16.67° C | 99% | 1013.4 hPa | 0 mm | - | - | - |
| 1778211060 | 16.67° C | 99% | 1013.5 hPa | 0 mm | - | - | - |
| 1778210758 | 17.22° C | 99% | 1013.6 hPa | 0 mm | - | - | - |
| 1778210456 | 17.22° C | 99% | 1013.7 hPa | 0 mm | - | - | - |
| 1778210154 | 16.67° C | 99% | 1013.7 hPa | 0 mm | - | - | - |
| 1778209853 | 16.11° C | 99% | 1013.6 hPa | 0 mm | - | - | - |
| 1778209551 | 16.11° C | 99% | 1013.7 hPa | 0 mm | - | - | - |
| 1778209249 | 16.11° C | 99% | 1013.6 hPa | 0 mm | - | - | - |
| 1778208948 | 16.11° C | 99% | 1013.7 hPa | 0 mm | - | - | - |
* Rain latest hour (hover to see other rain measurements)
** Current wind speed in m/s (hover to see current wind gust speed)